This demonstration page uses our WeatherBlox Daily Observations layout. Learn more.

Hourly Observations for March 29, 2016

Temp ( °F °C ) Dew Point ( °F °C ) Humidity (%) Winds ( mph kmh ) Pressure ( in mb ) Visibility ( mi km ) Precip ( " mm )
12:15 am 00:15 Clear 51 10.5 25 -4.1 36 36 SE 17 28 29.91 1013 10 16.0934 0 0
12:35 am 00:35 Mostly Cloudy 52 10.9 24 -4.3 34 34 SE 16 26 29.91 1013 10 16.0934 0 0
12:55 am 00:55 Partly Cloudy 48 9.1 25 -3.8 40 40 SE 14 22 29.91 1013 10 16.0934 0 0
1:15 am 01:15 Partly Cloudy 48 9 26 -3.5 42 42 SE 16 26 29.88 1012 10 16.0934 0 0
1:35 am 01:35 Partly Cloudy 49 9.2 25 -4 39 39 SE 16 26 29.88 1012 10 16.0934 0 0
1:55 am 01:55 Partly Cloudy 47 8.5 25 -3.9 42 42 SE 13 20 29.88 1012 10 16.0934 0 0
2:15 am 02:15 Partly Cloudy 48 9 25 -3.7 41 41 SE 18 30 29.88 1012 10 16.0934 0 0
2:35 am 02:35 Partly Cloudy 48 8.7 26 -3.5 42 42 SE 17 28 29.88 1012 10 16.0934 0 0
2:55 am 02:55 Partly Cloudy 49 9.2 26 -3.4 41 41 SE 12 19 29.88 1012 10 16.0934 0 0
3:15 am 03:15 Mostly Cloudy 49 9.2 26 -3.2 42 42 ESE 15 24 29.88 1012 10 16.0934 0 0
3:35 am 03:35 Partly Cloudy 49 9.2 27 -3 43 43 SE 16 26 29.85 1011 10 16.0934 0 0
3:55 am 03:55 Partly Cloudy with Thunderstorms 49 9.2 28 -2.1 45 45 SE 21 33 29.85 1011 10 16.0934 0 0
4:15 am 04:15 Mostly Cloudy 49 9.5 28 -2 45 45 SE 23 37 29.85 1011 10 16.0934 0 0
4:35 am 04:35 Mostly Cloudy with Nearby Thunderstorms 49 9.3 28 -2 45 45 SE 16 26 29.83 1010 10 16.0934 0 0
4:55 am 04:55 Partly Cloudy with Nearby Thunderstorms 47 8.6 28 -2.1 47 47 SE 16 26 29.83 1010 10 16.0934 0 0
5:15 am 05:15 Partly Cloudy 46 8 32 0 57 57 SE 18 30 29.83 1010 10 16.0934 0 0
5:35 am 05:35 Partly Cloudy 47 8.4 33 0.3 57 57 SE 21 33 29.83 1010 10 16.0934 0 0
5:55 am 05:55 Mostly Cloudy 47 8.5 33 0.7 58 58 SSE 14 22 29.83 1010 10 16.0934 0 0
6:15 am 06:15 Mostly Cloudy with Thunderstorms 46 8 35 1.7 65 65 SSE 16 26 29.8 1009 10 16.0934 0 0
6:35 am 06:35 Cloudy 46 8 37 2.6 69 69 SSE 15 24 29.83 1010 10 16.0934 0 0
6:55 am 06:55 Partly Cloudy 47 8.1 38 3.3 72 72 SSE 18 30 29.83 1010 10 16.0934 0 0
7:15 am 07:15 Clear 48 8.7 36 2.2 64 64 SE 24 39 29.83 1010 10 16.0934 0 0
7:35 am 07:35 Sunny 47 8.3 35 1.6 63 63 SE 16 26 29.83 1010 10 16.0934 0 0
7:55 am 07:55 Sunny 46 8 34 1.2 63 63 SE 16 26 29.83 1010 10 16.0934 0 0
8:15 am 08:15 Partly Cloudy 46 7.7 34 1.3 64 64 ESE 16 26 29.83 1010 10 16.0934 0 0
8:35 am 08:35 Mostly Cloudy 46 8 35 1.5 64 64 SE 17 28 29.83 1010 10 16.0934 0 0
8:55 am 08:55 Cloudy 47 8.6 35 1.7 62 62 SE 18 30 29.83 1010 10 16.0934 0 0
9:15 am 09:15 Cloudy 49 9.4 35 1.9 60 60 SE 22 35 29.83 1010 10 16.0934 0 0
9:35 am 09:35 Cloudy 50 10.2 35 1.7 56 56 SSE 25 41 29.83 1010 10 16.0934 0 0
9:55 am 09:55 Cloudy 50 10.2 35 1.6 55 55 SSE 22 35 29.83 1010 10 16.0934 0 0
10:15 am 10:15 Cloudy 51 10.3 35 1.8 56 56 SSE 22 35 29.8 1009 10 16.0934 0 0
10:35 am 10:35 Cloudy 51 10.7 36 2.2 56 56 SSE 25 41 29.77 1008 10 16.0934 0 0
10:55 am 10:55 Cloudy 52 11.3 37 2.5 55 55 SSE 23 37 29.77 1008 10 16.0934 0 0
11:15 am 11:15 Cloudy 53 11.9 37 2.8 54 54 SSE 22 35 29.77 1008 10 16.0934 0 0
11:35 am 11:35 Cloudy 54 12.3 38 3.2 54 54 SSE 25 41 29.77 1008 10 16.0934 0 0
11:55 am 11:55 Cloudy 55 13 39 3.7 54 54 SSE 22 35 29.77 1008 10 16.0934 0 0
12:15 pm 12:15 Cloudy 55 13 38 3.5 53 53 SSE 23 37 29.77 1008 10 16.0934 0 0
12:35 pm 12:35 Cloudy 56 13.2 39 4 54 54 SSE 25 41 29.77 1008 10 16.0934 0 0
12:55 pm 12:55 Cloudy 56 13.6 40 4.4 54 54 SSE 21 33 29.77 1008 10 16.0934 0 0
1:15 pm 13:15 Cloudy 57 14 40 4.6 53 53 SSE 24 39 29.74 1007 10 16.0934 0 0
1:35 pm 13:35 Cloudy 59 15.2 40 4.6 49 49 SSE 26 43 29.71 1006 10 16.0934 0 0
1:55 pm 13:55 Cloudy 59 15.1 41 4.8 50 50 SSE 29 46 29.71 1006 10 16.0934 0 0
2:15 pm 14:15 Mostly Cloudy 62 16.4 42 5.3 48 48 SSE 28 44 29.68 1005 10 16.0934 0 0
2:35 pm 14:35 Mostly Cloudy 63 17 42 5.6 47 47 SSE 26 43 29.65 1004 10 16.0934 0 0
2:55 pm 14:55 Mostly Cloudy 63 17 42 5.8 48 48 S 28 44 29.65 1004 10 16.0934 0 0
3:15 pm 15:15 Mostly Cloudy 64 17.8 43 6.3 47 47 S 25 41 29.62 1003 10 16.0934 0 0
3:35 pm 15:35 Partly Cloudy 64 17.5 44 6.4 48 48 SSE 25 41 29.62 1003 10 16.0934 0 0
3:55 pm 15:55 Partly Cloudy 64 17.7 44 6.4 48 48 SSE 26 43 29.62 1003 10 16.0934 0 0
4:15 pm 16:15 Partly Cloudy 64 17.9 43 6.2 46 46 SSE 22 35 29.62 1003 10 16.0934 0 0
4:35 pm 16:35 Partly Cloudy 64 17.8 44 6.4 47 47 SSE 30 48 29.59 1002 10 16.0934 0 0
4:55 pm 16:55 Sunny 64 17.7 44 6.5 48 48 SSE 29 46 29.59 1002 10 16.0934 0 0
5:15 pm 17:15 Partly Cloudy 64 17.8 44 6.6 48 48 SSE 36 57 29.59 1002 10 16.0934 0 0
5:35 pm 17:35 Partly Cloudy 62 16.7 44 6.5 51 51 SSE 32 52 29.59 1002 10 16.0934 0 0
5:55 pm 17:55 Mostly Cloudy 61 16.2 44 6.5 53 53 SSE 25 41 29.59 1002 10 16.0934 0 0
6:15 pm 18:15 Cloudy 61 15.9 44 6.5 54 54 SSE 30 48 29.62 1003 10 16.0934 0 0
6:35 pm 18:35 Mostly Cloudy 60 15.5 44 6.5 55 55 SSE 25 41 29.62 1003 10 16.0934 0 0
6:55 pm 18:55 Cloudy 59 15.1 44 6.6 57 57 SSE 23 37 29.62 1003 10 16.0934 0 0
7:15 pm 19:15 Cloudy 59 15 44 6.5 57 57 SSE 22 35 29.62 1003 10 16.0934 0 0
7:35 pm 19:35 Cloudy 58 14.6 44 6.5 59 59 SSE 23 37 29.62 1003 10 16.0934 0 0
7:55 pm 19:55 Cloudy 58 14.5 44 6.4 59 59 SE 22 35 29.62 1003 10 16.0934 0 0
8:15 pm 20:15 Cloudy 58 14.4 44 6.5 59 59 SSE 21 33 29.59 1002 10 16.0934 0 0
8:35 pm 20:35 Cloudy 58 14.5 43 6.3 58 58 SE 24 39 29.59 1002 10 16.0934 0 0
8:55 pm 20:55 Mostly Cloudy 58 14.2 43 6.2 59 59 SE 25 41 29.59 1002 10 16.0934 0 0
9:15 pm 21:15 Mostly Cloudy 58 14.4 43 6.2 58 58 SE 20 31 29.59 1002 10 16.0934 0 0
9:35 pm 21:35 Cloudy 57 14.1 43 6.3 60 60 SSE 23 37 29.59 1002 10 16.0934 0 0
9:55 pm 21:55 Cloudy 57 14 43 6 59 59 SE 22 35 29.59 1002 10 16.0934 0 0
10:15 pm 22:15 Partly Cloudy 57 13.7 43 6 60 60 SSE 22 35 29.59 1002 10 16.0934 0 0
10:35 pm 22:35 Mostly Cloudy 57 14 43 6 59 59 SSE 17 28 29.59 1002 10 16.0934 0 0
10:55 pm 22:55 Cloudy 58 14.3 43 6 58 58 SE 23 37 29.56 1001 10 16.0934 0 0
11:15 pm 23:15 Cloudy 58 14.6 43 6 57 57 SSE 25 41 29.56 1001 10 16.0934 0 0
11:35 pm 23:35 Cloudy 58 14.7 43 6 56 56 SSE 24 39 29.56 1001 10 16.0934 0 0
11:55 pm 23:55 Cloudy 59 14.8 43 6.1 56 56 SSE 25 41 29.53 1000 10 16.0934 0 0

Powered by AerisWeather